USA 40 R/B DEB

Satellite information

Favourite Embed

Satellite Type and Status

DEBRISIN ORBIT

Key statistics

Satellite USA 40 R/B DEB at a glance.

Uptime

13178

Days in orbit

Revolutions

≈ 9.3

Per day

Orbit

HEO

HEO

Inclination

57.0

Latest

Satellite identification and parameters

Extended collection of information and parameters for USA 40 R/B DEB.

Object identification

Identified? True

Debris? True

Object name: USA 40 R/B DEB

International designator: 1989-061BX

Object number (NORAD): 44524

Object ID (CCSDS): 44524

Country: UNITED STATES OF AMERICA (US)

Current information (Y/N): Y

RCS size: SMALL

Orbital parameters

Period: 155.358 minutes

Inclination: 57.0118 deg

SMA: 9573.045 km

Apoapsis: 5930.858 km

Periapsis: 458.962 km

RAAN: 291.3378 deg

Eccentricy: 0.28579701

Argument of periapsis: 46.1645 deg

Mean anomaly: 334.2616 deg

Mean motion: 9.26888735 rev/day

Mean motion (dot): 0.00020671 rev/day2

B* drag term: 0.0089449617 1/REarth

Two-line elements (TLE)

Creation date: Sept. 6, 2025, 2:09 a.m.

Reference frame: TEME

Reference center: EARTH

Epoch: Sept. 5, 2025, 9:09 a.m. UTC

TLE line 0: 0 USA 40 R/B DEB

TLE line 1: 1 44524U 89061BX 25248.38172225 .00020671 00000-0 89450-2 0 9998

TLE line 2: 2 44524 57.0118 291.3378 2857970 46.1645 334.2616 9.26888735179615

Live tracking on map

Real-time ground track for satellite USA 40 R/B DEB.

In-orbit conjunctions

There are no conjunctions computed for USA 40 R/B DEB, at the moment. Check back to stay up to date, as we update our databases every day.

Go to all conjunctions

Associated space launch

STS-28 was the thirtieth space shuttle mission, the fourth dedicated to the Department of Defence and the eigth of the Space Shuttle Columbia.

USA 40 R/B DEB was lifted into orbit during the mission ‘Space Shuttle Columbia / OV-102 | STS-28’, on board a Space Shuttle space rocket.

The launch took place on Aug. 8, 1989, 12:37 p.m. from Launch Complex 39B.

For more information about the launch, click the button.

Launch to space Space Shuttle Columbia / OV-102 | STS-28
Space Shuttle Columbia / OV-102 | STS-28

Agency: N/A

Status: Launch Successful

Launch date: Aug. 8, 1989, 12:37 p.m. UTC

Rocket: Space Shuttle

Launch pad: Launch Complex 39B

Location: Kennedy Space Center, FL, USA

...

Latest news about this satellite

There are no fresh news available about this satellite. Check back as we update our databases every day.


Newsletter sign-up

Weekly statistics, charts and insights to help you stay on top of the space industry.